Location: Catacaguana
(10.4120°N, 66.7591°W)
Time: 05:08:53
(UTC+00:00)

USA 234 - Pass Details

Date: 27 May 2022
Orbit: 1102 x 1106 km, 123.0° (Epoch: 24 June)

Event Time Altitude Azimuth Distance (km) Brightness Sun altitude
Exits shadow 00:59:18 67° 196° (SSW) 1,185 3.2 -30.6°
Maximum altitude 00:59:55 72° 233° (SW) 1,156 3.3 -30.7°
Drops below altitude 10° 01:06:26 10° 317° (NW) 2,957 6.3 -32.0°
Sets 01:08:55 0° 320° (NW) 3,915 7.2 -32.5°
